Regional Weather Roundup
Issued by NWS

Home | Current Version | Previous Version | Text Only | Print | Product List | Glossary On
Versions: 1 2 3 4 5 6 7 8 9 10 11 12 13 14 15 16 17 18 19 20 21 22 23 24 25 26 27 28 29 30 31 32 33 34 35 36 37 38 39 40 41 42 43 44 45 46 47 48 49 50
000
ASUS43 KDMX 281707
RWRIA

WEATHER ROUNDUP FOR IOWA
NATIONAL WEATHER SERVICE DES MOINES IA
1100 AM CST WED JAN 28 2015

NOTE: "FAIR" INDICATES FEW OR NO CLOUDS BELOW 12,000 FEET WITH NO
SIGNIFICANT WEATHER AND/OR OBSTRUCTIONS TO VISIBILITY.

* - THESE STATIONS ARE NOT NWS STATIONS...THUS NOT UNDER NWS
QUALITY CONTROL.  THEY ALSO DO NOT REPORT WEATHER SUCH
AS PRECIPITATION OR FOG.

IAZ001>003-012>014-020>022-031>034-043>046-281800-
   NORTHWEST IOWA

CITY           SKY/WX    TMP DP  RH WIND       PRES   REMARKS
CARROLL *      SUNNY     36  32  87 S16       29.85F WCI  26
CHEROKEE *     PTSUNNY   34  32  93 S13       29.82F FOG     WCI  25
DENISON *      SUNNY     37  34  87 S10G18    29.80F WCI  30
LE MARS *      SUNNY     37  32  81 S9G16     29.80S WCI  31
ORANGE CITY *  MOSUNNY   36  30  80 S12G17    29.78S HAZE    WCI  27
SHELDON *      PTSUNNY   34  34 100 SE17G26   29.77F FOG     WCI  23
SIOUX CITY     CLOUDY    39  32  76 S14       29.79F WCI  31
SPENCER        CLOUDY    32  29  88 SE17      29.82F FOG     WCI  21
STORM LAKE *   CLOUDY    32  32 100 SE18G24   29.82F FOG     WCI  20
$$

IAZ055>058-069>071-079>083-090>094-281800-
   SOUTHWEST IOWA

CITY           SKY/WX    TMP DP  RH WIND       PRES   REMARKS
ATLANTIC *     SUNNY     39  34  81 SE13      29.84F WCI  32
AUDUBON *      SUNNY     37  34  87 S16       29.84F WCI  28
CLARINDA *     SUNNY     45  34  65 S13       29.87S
COUNCIL BLFS * SUNNY     41  34  75 SE17      29.79F
CRESTON *      SUNNY     39  34  81 SE17G24   29.86F WCI  30
HARLAN  *      SUNNY     39  36  87 SE13G18   29.85F WCI  32
LAMONI         MOSUNNY   40  32  73 S15G26    29.89F WCI  32
RED OAK *      SUNNY     43  34  70 SE14      29.84F
SHENANDOAH *   SUNNY     48  34  57 SE13      29.84F
$$

IAZ047>049-059>061-072>074-084-281800-
   CENTRAL IOWA

CITY           SKY/WX    TMP DP  RH WIND       PRES   REMARKS
AMES           PTSUNNY   33  28  81 SE17      29.91F HAZE    WCI  22
ANKENY *       MOSUNNY   36  30  80 SE14G21   29.91F WCI  27
CHARITON *     SUNNY     39  32  75 SE22G28   29.91F WCI  29
DES MOINES     CLOUDY    37  29  72 SE21      29.91F WCI  26
GRINNELL*      MOSUNNY   34  30  86 SE24G30   29.95F WCI  21
KNOXVILLE *    SUNNY     36  28  75 SE17G24   29.92F WCI  25
MARSHALLTOWN   PTSUNNY   34  29  82 SE21G29   29.93F WCI  22
PELLA *        PTSUNNY   37  30  75 SE16      29.96F WCI  28
PERRY *          N/A     36  32  87 SE13      29.89S FOG     WCI  27
$$

IAZ004>006-015-016-023>025-035-036-281800-
   NORTH CENTRAL IOWA

CITY           SKY/WX    TMP DP  RH WIND       PRES   REMARKS
ALGONA *       CLOUDY    32  32 100 SE23      29.87F FOG     WCI  19
CLARION *      MIX PCPN  32  32 100 SE23      29.90F WCI  19
ESTHERVILLE    CLOUDY    30  29  96 S21G31    29.83F FOG     WCI  17
FORT DODGE *   CLOUDY    34  28  80 SE10      29.89S WCI  26
MASON CITY     CLOUDY    30  29  96 SE23G30   29.93F FOG     WCI  17
FOREST CITY *  CLOUDY    32  30  93 SE20G26   29.90F FOG     WCI  20
IOWA FALLS *   CLOUDY    32  29  90 SE18      29.93F FOG     WCI  20
$$

IAZ007>011-017>019-026>030-037>042-050>054-066-281800-
   NORTHEAST IOWA

CITY           SKY/WX    TMP DP  RH WIND       PRES   REMARKS
CEDAR RAPIDS   MOSUNNY   33  27  78 SE15G24   30.00F WCI  23
CHARLES CITY * FOG       30  30 100 MISG      29.96F VSB 1/2
CLINTON *      MOSUNNY   28  19  69 SE18      30.15F WCI  16
DECORAH *      CLOUDY    28  28 100 SE10G21   30.01F FOG     WCI  19
DUBUQUE        PTSUNNY   28  21  75 SE21G29   30.08F WCI  15
MONTICELLO *   SUNNY     30  25  80 SE18G25   30.06F WCI  18
OELWEIN *      MOSUNNY   32  28  86 SE21      30.00F WCI  20
WATERLOO       PTSUNNY   34  29  82 SE16G23   29.97F WCI  24
$$

IAZ064-065-067-068-078-281800-
   EAST CENTRAL IOWA

CITY           SKY/WX    TMP DP  RH WIND       PRES   REMARKS
DAVENPORT      PTSUNNY   30  20  66 SE22      30.11F WCI  17
IOWA CITY      SUNNY     32  26  78 SE15      30.06F WCI  22
MT. PLEASANT * SUNNY     36  28  75 SE16G28   30.06F WCI  26
MUSCATINE *    SUNNY     32  25  74 SE15G23   30.09F WCI  22
QUAD CITIES    MOSUNNY   30  22  72 SE14      30.12F WCI  19
$$

IAZ062-063-075>077-085>089-095>099-281800-
   SOUTHEAST IOWA

CITY           SKY/WX    TMP DP  RH WIND       PRES   REMARKS
BURLINGTON     SUNNY     36  29  75 S14       30.08F WCI  27
FAIRFIELD *    SUNNY     36  28  75 SE21G26   30.01F WCI  24
FORT MADISON * SUNNY     36  30  80 SE17G24   30.07F WCI  25
KEOKUK *       SUNNY     37  30  75 SE14G22   30.06F WCI  29
OSKALOOSA *      N/A     36  30  80 SE20      29.98F WCI  25
CENTERVILLE *  SUNNY     37  32  81 SE17G23   29.96F WCI  28
OTTUMWA        PTSUNNY   36  29  75 SE21G29   29.97F WCI  25
WASHINGTON *   SUNNY     36  34  93 SE25      30.03F WCI  23
$$

ABBREVIATIONS USED IN REMARKS
   TC - TEMPERATURES IN CELSIUS
  WCI - WIND CHILL INDEX
   HX - HEAT INDEX
  VSB - VISIBILITY
$$



USA.gov is the U.S. government's official web portal to all federal, state and local government web resources and services.